Back to catalog

GALILEO 27 (223)

AliveNavigationMEO
NORAD 49809·PAYLOAD·🇪🇺 EU

Launched Dec 5, 2021 from Guiana Space Centre

Loading…

Next Passes (next 24 hours)

TLE

FreshSource: CelesTrak SupGP

Epoch: Sep 13, 2026, 23:59 UTC

1 49809C 21116A   26256.99979167  .00000000  00000+0  00000+0 0  2563
2 49809  57.1244 339.2762 0003947 220.7254  45.4995  1.70476629    11

Track GALILEO 27 (223) in real time with AllMySat

Download on the App Store